[[{"header":{"parameterUnit":"m.s-1","parameterCategory":1,"la1":30.2991,"la2":30.254,"lo1":-89.0895,"lo2":-89.0444,"dy":0.0017,"dx":0.0017,"nx":28,"ny":28,"refTime":"2024-05-27T09:00:00:Z","depth":0,"parameterNumber":2,"parameterNumberName":"U-component_of_WINDS"},"data":[0,0,0,0,0,0,0,0,0,0,0,0,0,0,0,0,0,0,0,0,0,0,0,0,0,0,0,0,0,0,0,0,0,0,0,0,0,0,0,0,0,0,0,0,0,0,0,0,0,0,0,0,0,0,0,0,0,0,0.8873,0.8873,0,0.8909,0.8909,0.891,0.8923,0.8923,0.8922,0.8922,0.8959,0.896,0.8961,0,0,0,0,0,0,0,0,0,0,0,0,0,0.8815,0.8816,0.8873,0.8873,0.8874,0.8909,0.8909,0.891,0.8923,0.8923,0.8922,0.8922,0.8959,0.896,0.8961,0,0,0,0,0,0,0,0,0,0,0,0,0,0.8845,0.8817,0.8873,0.8885,0.8886,0.8909,0.8909,0.891,0.8923,0.8923,0.8922,0.8922,0.8958,0.896,0.8962,0.8975,0,0,0.8967,0.8967,0,0,0,0,0,0,0,0,0.8843,0.8847,0.8882,0.8884,0.8885,0.8911,0.8903,0.8932,0.8923,0.8909,0.8922,0.8922,0.8943,0.8946,0.8953,0.8977,0.8979,0.8967,0.8968,0.8968,0.8969,0,0,0,0,0,0,0,0.8841,0.8845,0.8887,0.8883,0.8885,0.8888,0.8892,0.8908,0.8927,0.891,0.8911,0.8915,0.8944,0.8952,0.8954,0.8979,0.8967,0.8968,0.8969,0.897,0.9017,0.9017,0,0,0,0,0,0,0.8837,0.8844,0.8886,0.8888,0.8863,0.8889,0.8894,0.8903,0.8927,0.893,0.8915,0.8916,0.8949,0.8952,0.8956,0.8974,0.8968,0.897,0.8971,0.9017,0.9017,0.9017,0,0,0,0,0,0,0.8836,0.8841,0.8885,0.8866,0.8872,0.889,0.8901,0.8904,0.8912,0.893,0.8934,0.892,0.8949,0.8953,0.8971,0.8975,0.8971,0.8972,0.9016,0.9017,0.9017,0.901,0,0,0,0,0,0,0.8834,0.884,0.8846,0.8866,0.8873,0.8899,0.8901,0.8905,0.8914,0.8915,0.8936,0.8939,0.8949,0.8968,0.8972,0.8978,0.8973,0.9016,0.9017,0.9017,0.901,0.9011,0.9011,0,0,0,0,0,0.8832,0.8842,0.8846,0.8851,0.888,0.8899,0.8903,0.8915,0.8915,0.892,0.8933,0.8938,0.8974,0.897,0.8975,0.898,0.9016,0.9016,0.9017,0.901,0.9011,0.9011,0,0,0,0,0,0,0.8821,0.8845,0.8849,0.8866,0.8881,0.8901,0.8909,0.8915,0.8929,0.8929,0.8943,0.8948,0.8964,0.8974,0.8969,0.8995,0.8995,0.8997,0.8988,0.8989,0.8989,0.8987,0.8975,0,0,0,0,0,0.8821,0.8834,0.8854,0.8867,0.8874,0.889,0.8899,0.8907,0.8922,0.8928,0.8942,0.8956,0.8971,0.8981,0.8995,0.9012,0.9017,0.9018,0.9018,0.9018,0.902,0.903,0.9031,0.9019,0.9019,0.9019,0,0,0.882,0.8835,0.8842,0.8866,0.8878,0.8892,0.8895,0.891,0.892,0.8931,0.8948,0.8958,0.8975,0.8993,0.9001,0.9001,0.9024,0.9019,0.9019,0.9021,0.9031,0.9032,0.9033,0.902,0.902,0.902,0,0,0.8826,0.8838,0.8851,0.8863,0.8881,0.8892,0.8895,0.8915,0.8922,0.894,0.8948,0.8961,0.8986,0.8998,0.9007,0.9018,0.9024,0.9022,0.9024,0.9033,0.9034,0.9035,0.9039,0.9041,0.9024,0.9024,0.9024,0,0.8823,0.8844,0.8857,0.8871,0.8881,0.8891,0.8904,0.8915,0.8937,0.8944,0.8944,0.8976,0.8988,0.9009,0.9012,0.9019,0.9023,0.902,0.9033,0.9034,0.9035,0.9039,0.9041,0.9023,0.9023,0.9023,0.9023,0,0.884,0.8854,0.8862,0.8884,0.8895,0.8908,0.8923,0.8932,0.8939,0.895,0.8968,0.8983,0.9001,0.9007,0.9013,0.9028,0.9028,0.903,0.9031,0.9036,0.904,0.9042,0.9023,0.9023,0.9023,0.9023,0,0,0.8839,0.8868,0.8871,0.8881,0.8902,0.8914,0.8928,0.8946,0.8954,0.8968,0.8981,0.9002,0.9004,0.9015,0.9023,0.9032,0.904,0.9033,0.9034,0.9034,0.9058,0.9056,0.9058,0.9044,0.9044,0.9044,0.9056,0,0.8848,0.8874,0.8886,0.8907,0.8921,0.8931,0.8943,0.8958,0.8968,0.8981,0.8993,0.9007,0.901,0.9016,0.9025,0.9037,0.9045,0.9036,0.9056,0.9056,0.9051,0.906,0.9058,0.9068,0.9058,0.9058,0.9058,0,0.8862,0.8878,0.89,0.892,0.8926,0.8937,0.8955,0.8967,0.8984,0.8991,0.9003,0.9011,0.9026,0.9025,0.9046,0.904,0.9049,0.9056,0.9057,0.9059,0.9058,0.9063,0.9072,0.9074,0.9061,0.9061,0.9061,0,0.8861,0.8887,0.8904,0.8912,0.8936,0.8943,0.8953,0.897,0.898,0.8995,0.9002,0.9019,0.9028,0.904,0.9053,0.9051,0.9073,0.9073,0.908,0.9079,0.9084,0.9084,0.9095,0.9089,0.9089,0.9089,0.9089,0,0.8869,0.8883,0.8903,0.8913,0.8929,0.8942,0.8957,0.8968,0.8983,0.8995,0.9005,0.9016,0.9032,0.9046,0.9055,0.9072,0.9076,0.9082,0.9085,0.9081,0.9081,0.9087,0.9087,0.9089,0.9089,0.9089,0.9089,0,0.887,0.8884,0.8903,0.8925,0.893,0.8941,0.8959,0.8969,0.898,0.8996,0.9001,0.9018,0.9034,0.9048,0.9069,0.9076,0.9093,0.9096,0.9088,0.9089,0.9095,0.9095,0.9111,0.9115,0.9106,0.9106,0.9106,0,0.8875,0.8886,0.8908,0.8918,0.8928,0.8943,0.8953,0.8967,0.8978,0.8998,0.9006,0.9023,0.9038,0.9064,0.9078,0.9095,0.9098,0.9103,0.9101,0.9098,0.9099,0.9098,0.91,0.9103,0.9103,0.9103,0.9103,0,0.8882,0.8889,0.8904,0.8922,0.8935,0.8949,0.8964,0.8971,0.8988,0.8999,0.9016,0.9028,0.905,0.9067,0.9086,0.9096,0.9103,0.9104,0.9106,0.9104,0.9099,0.9102,0.9089,0.9104,0.9104,0.9104,0.9104,0.9104,0.8886,0.8896,0.8914,0.893,0.8943,0.8957,0.8968,0.898,0.8995,0.9015,0.9022,0.904,0.9057,0.9082,0.9092,0.9106,0.9107,0.9111,0.9111,0.9112,0.9112,0.9096,0.911,0.911,0.911,0.911,0.911,0,0.8894,0.8906,0.8921,0.8942,0.8955,0.8961,0.8978,0.8988,0.9004,0.9019,0.9033,0.9053,0.907,0.9086,0.9104,0.9112,0.9115,0.9116,0.9116,0.9118,0.911,0.9106,0.9113,0.9113,0.9113,0.9113,0.9113,0.9113,0.89,0.8917,0.8926,0.8951,0.8963,0.8981,0.899,0.9002,0.9015,0.9037,0.9051,0.9061,0.9077,0.9096,0.9111,0.9116,0.9122,0.9122,0.9127,0.9119,0.9119,0.9118,0.9115,0.9123,0.9123,0.9134,0.9134,0.9134]},{"header":{"parameterUnit":"m.s-1","parameterCategory":1,"la1":30.2991,"la2":30.254,"lo1":-89.0895,"lo2":-89.0444,"dy":0.0017,"dx":0.0017,"nx":28,"ny":28,"refTime":"2024-05-27T09:00:00:Z","depth":0,"parameterNumber":3,"parameterNumberName":"V-component_of_WINDS"},"data":[0,0,0,0,0,0,0,0,0,0,0,0,0,0,0,0,0,0,0,0,0,0,0,0,0,0,0,0,0,0,0,0,0,0,0,0,0,0,0,0,0,0,0,0,0,0,0,0,0,0,0,0,0,0,0,0,0,0,5.4829,5.483,0,5.4893,5.4894,5.4895,5.4911,5.491,5.491,5.4909,5.4968,5.4969,5.4971,0,0,0,0,0,0,0,0,0,0,0,0,0,5.4714,5.4716,5.4829,5.483,5.4831,5.4893,5.4894,5.4895,5.4911,5.491,5.491,5.4909,5.4967,5.4969,5.4971,0,0,0,0,0,0,0,0,0,0,0,0,0,5.477,5.4717,5.4829,5.4847,5.4849,5.4893,5.4894,5.4895,5.4911,5.491,5.491,5.4909,5.4966,5.4969,5.4972,5.5001,0,0,5.4981,5.4982,0,0,0,0,0,0,0,0,5.4766,5.4774,5.4843,5.4845,5.4848,5.4894,5.4875,5.493,5.4911,5.4887,5.4909,5.4909,5.4943,5.4948,5.4961,5.5004,5.5006,5.4981,5.4983,5.4984,5.4985,0,0,0,0,0,0,0,5.4763,5.4771,5.4854,5.4844,5.4847,5.4849,5.4856,5.4885,5.4917,5.4889,5.489,5.4898,5.4944,5.4958,5.4962,5.5007,5.4981,5.4983,5.4985,5.4986,5.5078,5.5079,0,0,0,0,0,0,5.4757,5.4768,5.4852,5.4856,5.4805,5.4851,5.486,5.4879,5.4917,5.4922,5.4899,5.4899,5.4953,5.4959,5.4964,5.5002,5.4984,5.4986,5.4988,5.5077,5.5078,5.5079,0,0,0,0,0,0,5.4754,5.4764,5.485,5.4813,5.4824,5.4854,5.4876,5.4881,5.4895,5.4924,5.4929,5.4907,5.4953,5.496,5.4993,5.5004,5.4988,5.499,5.5076,5.5078,5.5079,5.5076,0,0,0,0,0,0,5.4751,5.4763,5.4776,5.4813,5.4826,5.4879,5.4877,5.4883,5.4901,5.4901,5.4934,5.4939,5.4953,5.4988,5.4995,5.5008,5.4993,5.5076,5.5077,5.5078,5.5076,5.5077,5.5079,0,0,0,0,0,5.4747,5.4771,5.4777,5.4787,5.4843,5.488,5.4887,5.4905,5.4902,5.4914,5.4933,5.4938,5.5002,5.4991,5.5,5.5013,5.5075,5.5077,5.5078,5.5075,5.5077,5.5079,0,0,0,0,0,0,5.4732,5.4776,5.4783,5.482,5.4847,5.4882,5.4898,5.4906,5.4932,5.4931,5.4951,5.4958,5.4989,5.5004,5.4992,5.5043,5.5038,5.5041,5.5033,5.5035,5.5036,5.5032,5.4995,0,0,0,0,0,5.4733,5.4762,5.4798,5.4827,5.4841,5.4867,5.4884,5.4896,5.4923,5.4933,5.4954,5.4978,5.5004,5.502,5.5045,5.5078,5.5085,5.5091,5.5093,5.5094,5.5096,5.5115,5.5118,5.5084,5.5084,5.5084,0,0,5.4736,5.4764,5.478,5.4825,5.4847,5.4874,5.4876,5.4905,5.4925,5.4937,5.497,5.4986,5.5014,5.5047,5.5062,5.506,5.5107,5.5096,5.5097,5.5099,5.5117,5.512,5.5123,5.5085,5.5085,5.5085,0,0,5.4755,5.4779,5.4807,5.4829,5.4863,5.4881,5.4888,5.4923,5.4935,5.4969,5.4979,5.5001,5.5045,5.5065,5.5081,5.5108,5.5114,5.5116,5.5124,5.5142,5.5145,5.5147,5.5157,5.5161,5.5118,5.5118,5.5118,0,5.4753,5.4797,5.4819,5.4848,5.4868,5.4883,5.491,5.493,5.4969,5.4981,5.4979,5.5035,5.5055,5.5093,5.51,5.5112,5.5119,5.5112,5.5143,5.5146,5.5148,5.5158,5.5162,5.5118,5.5118,5.5118,5.5118,0,5.4793,5.4823,5.4841,5.4882,5.4904,5.4931,5.4956,5.4974,5.4985,5.5002,5.5036,5.5061,5.5092,5.5101,5.5111,5.5141,5.5139,5.5139,5.5134,5.5151,5.5161,5.5165,5.5118,5.5118,5.5118,5.5118,0,0,5.4803,5.4858,5.4864,5.4884,5.4923,5.4945,5.4973,5.5006,5.5022,5.5048,5.5072,5.5109,5.5111,5.5128,5.514,5.5156,5.5177,5.5154,5.5155,5.5158,5.5212,5.5211,5.5215,5.5181,5.5181,5.5182,5.5209,0,5.4827,5.4881,5.4903,5.4945,5.4973,5.4989,5.5013,5.5039,5.5056,5.508,5.5098,5.5125,5.5124,5.5136,5.5152,5.5171,5.5188,5.5169,5.5201,5.5202,5.5194,5.522,5.522,5.5244,5.5213,5.5214,5.5214,0,5.4862,5.4893,5.4939,5.4977,5.4989,5.5011,5.5043,5.5067,5.5096,5.5107,5.5128,5.5139,5.5168,5.5161,5.52,5.5187,5.5201,5.5212,5.5213,5.5217,5.5209,5.5224,5.5252,5.5256,5.522,5.522,5.5219,0,5.4865,5.4917,5.4953,5.4969,5.5013,5.5028,5.5046,5.5075,5.5094,5.5121,5.5133,5.5162,5.5178,5.52,5.5218,5.5211,5.5255,5.525,5.5264,5.5263,5.5272,5.5271,5.5303,5.5281,5.5281,5.5281,5.5281,0,5.489,5.4918,5.4955,5.4977,5.5008,5.5032,5.5061,5.5081,5.5106,5.513,5.5144,5.5166,5.5189,5.5213,5.5227,5.5257,5.5263,5.5272,5.5276,5.5271,5.527,5.5281,5.5279,5.5282,5.5282,5.5281,5.5281,0,5.4899,5.4925,5.4965,5.5004,5.5015,5.5036,5.5069,5.5089,5.5108,5.5138,5.5146,5.5174,5.5204,5.5225,5.5261,5.527,5.5303,5.5306,5.5294,5.5296,5.5309,5.5308,5.5349,5.5355,5.5329,5.5329,5.5329,0,5.4913,5.4935,5.4978,5.4997,5.5017,5.5046,5.5067,5.509,5.511,5.5146,5.5161,5.5192,5.5219,5.5264,5.5286,5.5315,5.5318,5.5331,5.5322,5.5318,5.5319,5.5318,5.532,5.5332,5.5332,5.5332,5.5332,0,5.4935,5.4948,5.4978,5.5013,5.5038,5.5065,5.5093,5.5107,5.5135,5.5156,5.5188,5.5209,5.5248,5.5278,5.5309,5.5325,5.5333,5.5335,5.534,5.5336,5.5328,5.5333,5.5298,5.5334,5.5334,5.5334,5.5334,5.5334,5.4947,5.4969,5.5003,5.5036,5.506,5.5086,5.5108,5.5131,5.5159,5.5195,5.5206,5.5239,5.5267,5.531,5.5327,5.5352,5.5351,5.5357,5.5359,5.5361,5.5361,5.5325,5.5357,5.5357,5.5357,5.5357,5.5357,0,5.4971,5.4994,5.5025,5.5065,5.5091,5.5099,5.5131,5.5151,5.5181,5.5208,5.5235,5.5271,5.5301,5.5326,5.5356,5.5371,5.5376,5.5378,5.5377,5.5381,5.536,5.5353,5.5374,5.5374,5.5374,5.5374,5.5374,5.5374,5.4986,5.5023,5.504,5.5088,5.511,5.5146,5.5163,5.5186,5.5209,5.525,5.5276,5.5293,5.5319,5.5352,5.5379,5.5385,5.5396,5.5398,5.5405,5.5385,5.5383,5.5381,5.5374,5.54,5.54,5.5424,5.5425,5.5425]}]]